Weather History for South Pass, WY

Change the Weather History Date:

Sunday, November 3, 2013

  Actual Average (KLND) Record (KLND)
Temperature  
Mean Temperature 27 °F 38 °F  
Max Temperature 35 °F 50 °F 70 °F (1921)
Min Temperature 17 °F 26 °F -12 °F (1991)
Degree Days  
Heating Degree Days 38 27  
Month to date heating degree days 79  
Since 1 July heating degree days 940  
Cooling Degree Days 0 0  
Month to date cooling degree days 0  
Year to date cooling degree days 472  
Moisture  
Dew Point 15 °F    
Average Humidity 58    
Maximum Humidity 93    
Minimum Humidity 40    
Precipitation  
Precipitation 0.00 in 0.03 in 0.60 in (1957)
Month to date precipitation 0.10  
Year to date precipitation 11.32  
Snow  
Snow 0.00 in 0.40 in - ()
Month to date snowfall 1.2  
Since 1 July snowfall 13.7  
Since 1 September snowfall 13.7  
Snow Depth -    
Sea Level Pressure  
Sea Level Pressure 29.65 in    
Wind  
Wind Speed 16 mph (WSW)    
Max Wind Speed 23 mph    
Max Gust Speed 33 mph    
Visibility 10 miles    
Events Snow    
T = Trace of Precipitation, MM = Missing Value Source: NWS Daily Summary

Daily Weather History Graph

Daily Weather History Graph

Search for Another Location

Airport:

Trip Planner

Search our weather history database for the weather conditions in past years. The results will help you decide how hot, cold, wet, or windy it might be!

Date:

Astronomy

Nov. 03, 2013 Rise Set
Actual Time 6:51 AM MST 5:05 PM MST
Civil Twilight 6:22 AM MST 5:34 PM MST
Nautical Twilight 5:48 AM MST 6:07 PM MST
Astronomical Twilight 5:15 AM MST 6:40 PM MST
Moon 6:59 AM MST (11/3) 5:21 PM MST (11/3)
Length of Visible Light 11h 12m
Length of Day
10h 13m
New Moon, 0% of the Moon is Illuminated
Nov 3
New Moon
Nov 9
First Quarter
Nov 17
Full
Nov 25
Last Quarter
Dec 2
New

Hourly Weather History & Observations

Time (MST) Temp. Windchill Dew Point Humidity Pressure Visibility Wind Dir Wind Speed Gust Speed Precip Events Conditions
12:15 AM 35.6 °F 25.5 °F 23.0 °F 60% 29.73 in 10.0 mi WSW 17.3 mph 26.5 mph N/A   Clear
12:35 AM 35.6 °F 25.5 °F 23.0 °F 60% 29.73 in 10.0 mi WSW 17.3 mph 23.0 mph N/A   Clear
12:55 AM 33.8 °F 23.9 °F 23.0 °F 65% 29.73 in 10.0 mi WSW 15.0 mph - N/A   Clear
1:15 AM 33.8 °F 23.9 °F 21.2 °F 60% 29.72 in 10.0 mi WSW 15.0 mph 20.7 mph N/A   Clear
1:35 AM 35.6 °F 26.2 °F 21.2 °F 56% 29.71 in 10.0 mi WSW 15.0 mph 21.9 mph N/A   Clear
1:55 AM 35.6 °F 26.6 °F 19.4 °F 52% 29.71 in 10.0 mi WSW 13.8 mph - N/A   Clear
1:15 AM 35.6 °F 26.6 °F 21.2 °F 56% 29.71 in 10.0 mi WSW 13.8 mph 19.6 mph N/A   Clear
1:35 AM 33.8 °F 23.5 °F 21.2 °F 60% 29.70 in 10.0 mi WSW 16.1 mph 20.7 mph N/A   Clear
1:55 AM 33.8 °F 23.2 °F 21.2 °F 60% 29.70 in 10.0 mi WSW 17.3 mph 21.9 mph N/A   Clear
2:15 AM 33.8 °F 23.5 °F 23.0 °F 65% 29.69 in 10.0 mi WSW 16.1 mph - N/A   Clear
2:35 AM 33.8 °F 23.5 °F 21.2 °F 60% 29.69 in 10.0 mi WSW 16.1 mph 21.9 mph N/A   Clear
2:55 AM 33.8 °F 24.3 °F 21.2 °F 60% 29.68 in 10.0 mi WSW 13.8 mph 21.9 mph N/A   Clear
3:15 AM 33.8 °F 24.3 °F 23.0 °F 65% 29.67 in 10.0 mi WSW 13.8 mph - N/A   Clear
3:35 AM 33.8 °F 23.5 °F 23.0 °F 65% 29.66 in 10.0 mi WSW 16.1 mph 21.9 mph N/A   Clear
3:55 AM 33.8 °F 23.2 °F 23.0 °F 65% 29.66 in 10.0 mi WSW 17.3 mph - N/A   Clear
4:15 AM 32.0 °F 21.2 °F 23.0 °F 69% 29.65 in 10.0 mi WSW 16.1 mph 20.7 mph N/A   Clear
4:35 AM 32.0 °F 20.8 °F 23.0 °F 69% 29.64 in 10.0 mi WSW 17.3 mph - N/A   Scattered Clouds
4:55 AM 32.0 °F 20.5 °F 23.0 °F 69% 29.64 in 10.0 mi WSW 18.4 mph 24.2 mph N/A   Scattered Clouds
5:15 AM 32.0 °F 20.8 °F 23.0 °F 69% 29.64 in 10.0 mi WSW 17.3 mph 23.0 mph N/A   Mostly Cloudy
5:35 AM 32.0 °F 20.8 °F 23.0 °F 69% 29.63 in 10.0 mi WSW 17.3 mph 23.0 mph N/A   Overcast
5:55 AM 32.0 °F 22.1 °F 23.0 °F 69% 29.63 in 10.0 mi WSW 13.8 mph - N/A   Overcast
6:15 AM 32.0 °F 21.6 °F 24.8 °F 75% 29.62 in 10.0 mi WSW 15.0 mph 20.7 mph N/A   Overcast
6:35 AM 32.0 °F 21.2 °F 24.8 °F 75% 29.62 in 10.0 mi WSW 16.1 mph 19.6 mph N/A   Overcast
6:55 AM 32.0 °F 21.2 °F 24.8 °F 75% 29.61 in 10.0 mi WSW 16.1 mph 19.6 mph N/A   Overcast
7:15 AM 32.0 °F 22.1 °F 24.8 °F 75% 29.61 in 10.0 mi WSW 13.8 mph 21.9 mph N/A   Overcast
7:35 AM 32.0 °F 20.8 °F 24.8 °F 75% 29.61 in 10.0 mi WSW 17.3 mph 20.7 mph N/A   Overcast
7:55 AM 32.0 °F 22.1 °F 26.6 °F 80% 29.61 in 10.0 mi WSW 13.8 mph 24.2 mph N/A   Overcast
8:15 AM 32.0 °F 21.6 °F 26.6 °F 80% 29.63 in 10.0 mi WSW 15.0 mph 20.7 mph N/A Snow Light Snow
8:35 AM 30.2 °F 20.8 °F 28.4 °F 93% 29.63 in 1.5 mi WSW 11.5 mph 19.6 mph N/A Snow Light Snow
8:55 AM 30.2 °F 20.2 °F 26.6 °F 86% 29.62 in 3.0 mi West 12.7 mph 17.3 mph N/A Snow Light Snow
9:15 AM 30.2 °F 20.2 °F 23.0 °F 75% 29.62 in 10.0 mi West 12.7 mph 21.9 mph N/A   Overcast
9:35 AM 30.2 °F 18.1 °F 21.2 °F 69% 29.62 in 4.0 mi West 18.4 mph 27.6 mph N/A Snow Light Snow
9:55 AM 30.2 °F 18.9 °F 17.6 °F 60% 29.64 in 10.0 mi West 16.1 mph 24.2 mph N/A   Mostly Cloudy
10:15 AM 30.2 °F 17.1 °F 10.4 °F 44% 29.64 in 10.0 mi West 21.9 mph 33.4 mph N/A   Overcast
10:35 AM 30.2 °F 17.4 °F 8.6 °F 40% 29.65 in 10.0 mi WSW 20.7 mph 27.6 mph N/A   Overcast
10:55 AM 30.2 °F 18.5 °F 10.4 °F 44% 29.65 in 10.0 mi WSW 17.3 mph 26.5 mph N/A   Overcast
11:15 AM 30.2 °F 19.3 °F 10.4 °F 44% 29.65 in 10.0 mi WSW 15.0 mph 21.9 mph N/A   Overcast
11:35 AM 30.2 °F 16.8 °F 8.6 °F 40% 29.65 in 10.0 mi WSW 23.0 mph 26.5 mph N/A   Scattered Clouds
11:55 AM 28.4 °F 15.4 °F 6.8 °F 40% 29.65 in 10.0 mi West 19.6 mph 31.1 mph N/A   Scattered Clouds
12:15 PM 28.4 °F 15.4 °F 12.2 °F 51% 29.65 in 10.0 mi WSW 19.6 mph 25.3 mph N/A   Overcast
12:35 PM 28.4 °F 16.2 °F 12.2 °F 51% 29.64 in 10.0 mi WSW 17.3 mph 25.3 mph N/A   Overcast
12:55 PM 28.4 °F 16.6 °F 10.4 °F 47% 29.65 in 10.0 mi WSW 16.1 mph 23.0 mph N/A   Overcast
1:15 PM 28.4 °F 15.4 °F 12.2 °F 51% 29.64 in 10.0 mi WSW 19.6 mph 24.2 mph N/A   Overcast
1:35 PM 28.4 °F 16.2 °F 12.2 °F 51% 29.64 in 10.0 mi WSW 17.3 mph 24.2 mph N/A   Overcast
1:55 PM 28.4 °F 17.5 °F 12.2 °F 51% 29.64 in 10.0 mi WSW 13.8 mph 19.6 mph N/A   Overcast
2:15 PM 28.4 °F 17.5 °F 12.2 °F 51% 29.64 in 10.0 mi WSW 13.8 mph 21.9 mph N/A   Overcast
2:35 PM 28.4 °F 18.0 °F 12.2 °F 51% 29.64 in 10.0 mi WSW 12.7 mph 19.6 mph N/A   Overcast
2:55 PM 28.4 °F 17.5 °F 10.4 °F 47% 29.64 in 10.0 mi WSW 13.8 mph 23.0 mph N/A   Overcast
3:15 PM 26.6 °F 12.7 °F 10.4 °F 51% - 10.0 mi WSW 20.7 mph 25.3 mph N/A   Overcast
3:35 PM 26.6 °F 14.7 °F 10.4 °F 51% - 10.0 mi West 15.0 mph 26.5 mph N/A   Overcast
3:55 PM 26.6 °F 13.8 °F 8.6 °F 47% - 10.0 mi WSW 17.3 mph 26.5 mph N/A   Scattered Clouds
4:15 PM 26.6 °F 13.4 °F 5.0 °F 40% - 10.0 mi West 18.4 mph 26.5 mph N/A   Scattered Clouds
4:35 PM 26.6 °F 14.3 °F 5.0 °F 40% - 10.0 mi West 16.1 mph 26.5 mph N/A   Scattered Clouds
4:55 PM 24.8 °F 11.1 °F 5.0 °F 43% - 10.0 mi West 18.4 mph 25.3 mph N/A   Clear
5:15 PM 23.0 °F 10.1 °F 8.6 °F 54% - 10.0 mi West 15.0 mph 21.9 mph N/A   Clear
5:35 PM 23.0 °F 9.6 °F 5.0 °F 46% - 10.0 mi West 16.1 mph 25.3 mph N/A   Clear
5:55 PM 21.2 °F 5.2 °F 3.2 °F 46% - 10.0 mi West 21.9 mph 28.8 mph N/A   Clear
6:15 PM 21.2 °F 6.4 °F 3.2 °F 46% - 10.0 mi West 18.4 mph 24.2 mph N/A   Clear
6:35 PM 21.2 °F 8.9 °F 6.8 °F 54% - 10.0 mi West 12.7 mph 24.2 mph N/A   Clear
6:55 PM 21.2 °F 8.3 °F 5.0 °F 50% - 10.0 mi NW 13.8 mph 20.7 mph N/A   Clear
7:15 PM 21.2 °F 10.1 °F 5.0 °F 50% - 10.0 mi WNW 10.4 mph - N/A   Scattered Clouds
7:35 PM 21.2 °F 11.7 °F 3.2 °F 46% - 10.0 mi West 8.1 mph - N/A   Clear
7:55 PM 19.4 °F 7.9 °F 5.0 °F 54% - 10.0 mi West 10.4 mph - N/A   Clear
8:15 PM 19.4 °F 7.9 °F 6.8 °F 58% - 10.0 mi West 10.4 mph - N/A   Clear
8:35 PM 19.4 °F 5.5 °F 8.6 °F 63% - 10.0 mi West 15.0 mph - N/A   Clear
8:55 PM 19.4 °F 6.0 °F 6.8 °F 58% - 10.0 mi West 13.8 mph - N/A   Clear
9:15 PM 19.4 °F 8.6 °F 6.8 °F 58% - 10.0 mi West 9.2 mph 19.6 mph N/A   Clear
9:35 PM 19.4 °F 6.0 °F 3.2 °F 49% - 10.0 mi West 13.8 mph 19.6 mph N/A   Clear
9:55 PM 19.4 °F 10.4 °F 3.2 °F 49% - 10.0 mi West 6.9 mph - N/A   Clear
10:15 PM 19.4 °F 9.5 °F 5.0 °F 54% - 10.0 mi WSW 8.1 mph 16.1 mph N/A   Clear
10:35 PM 19.4 °F 12.8 °F 5.0 °F 54% - 10.0 mi WNW 4.6 mph - N/A   Clear
10:55 PM 17.6 °F 1.7 °F 8.6 °F 68% - 10.0 mi WSW 18.4 mph 24.2 mph N/A   Clear